• In Czech Republic
  • List of Countries
  • For 7 days
  • Water Temperature
  • Satellite Maps
  • Weather Map
  • Weather Widgets
  • user-avatar
    Login

    Hourly Weather Mazari Sharif

    Today, 25 February, Sunday

    Time Temperature Precipitation Wind Pressure Humidity
    00:00 +7°C° 0 mm 2 mps 655 mmHg 66%
    01:00 +7°C° 0 mm 3 mps 655 mmHg 64%
    02:00 +7°C° 0 mm 3 mps 655 mmHg 63%
    03:00 +7°C° 0 mm 3 mps 655 mmHg 61%
    04:00 +7°C° 0 mm 3 mps 654 mmHg 59%
    05:00 +8°C° 0 mm 3 mps 655 mmHg 57%
    06:00 +8°C° 0 mm 3 mps 655 mmHg 55%
    07:00 +8°C° 0 mm 3 mps 655 mmHg 53%
    08:00 +10°C° 0 mm 4 mps 655 mmHg 47%
    09:00 +12°C° 0 mm 4 mps 655 mmHg 42%
    10:00 +14°C° 0 mm 4 mps 655 mmHg 37%
    11:00 +15°C° 0 mm 4 mps 655 mmHg 35%
    12:00 +17°C° 0 mm 4 mps 654 mmHg 33%
    13:00 +17°C° 0 mm 4 mps 654 mmHg 31%
    14:00 +17°C° 0 mm 4 mps 653 mmHg 33%
    15:00 +17°C° 0 mm 4 mps 653 mmHg 35%
    16:00 +15°C° 0 mm 4 mps 652 mmHg 37%
    17:00 +16°C° 0.1 mm 3 mps 652 mmHg 40%
    18:00 +14°C° 0.1 mm 3 mps 652 mmHg 44%
    19:00 +13°C° 0.1 mm 3 mps 652 mmHg 47%
    20:00 +12°C° 0.2 mm 3 mps 652 mmHg 49%
    21:00 +13°C° 0.2 mm 2 mps 652 mmHg 51%
    22:00 +12°C° 0.2 mm 2 mps 651 mmHg 53%
    23:00 +11°C° 0.2 mm 3 mps 651 mmHg 55%

    Tomorrow, 26 February, Monday

    Time Temperature Precipitation Wind Pressure Humidity
    00:00 +11°C° 0.2 mm 3 mps 651 mmHg 57%
    01:00 +11°C° 0.2 mm 4 mps 650 mmHg 58%
    02:00 +11°C° 0.1 mm 4 mps 650 mmHg 58%
    03:00 +10°C° 0.1 mm 4 mps 650 mmHg 57%
    04:00 +10°C° 0.1 mm 4 mps 649 mmHg 57%
    05:00 +11°C° 0 mm 3 mps 649 mmHg 56%
    06:00 +11°C° 0 mm 3 mps 649 mmHg 55%
    07:00 +11°C° 0 mm 3 mps 650 mmHg 54%
    08:00 +12°C° 0 mm 3 mps 650 mmHg 50%
    09:00 +13°C° 0 mm 3 mps 650 mmHg 46%
    10:00 +16°C° 0 mm 2 mps 651 mmHg 42%
    11:00 +16°C° 0 mm 3 mps 651 mmHg 42%
    12:00 +17°C° 0 mm 3 mps 650 mmHg 42%
    13:00 +17°C° 0 mm 3 mps 650 mmHg 42%
    14:00 +15°C° 0.3 mm 5 mps 650 mmHg 52%
    15:00 +13°C° 0.3 mm 6 mps 650 mmHg 62%
    16:00 +11°C° 0.3 mm 8 mps 650 mmHg 71%
    17:00 +10°C° 1.7 mm 7 mps 651 mmHg 74%
    18:00 +9°C° 1.7 mm 6 mps 652 mmHg 77%
    19:00 +8°C° 1.7 mm 4 mps 653 mmHg 79%
    20:00 +8°C° 0.3 mm 4 mps 653 mmHg 75%
    21:00 +10°C° 0.3 mm 3 mps 654 mmHg 71%
    22:00 +10°C° 0.3 mm 2 mps 654 mmHg 67%
    23:00 +10°C° 0.1 mm 2 mps 654 mmHg 67%

    Day after tomorrow, 27 February, Tuesday

    Time Temperature Precipitation Wind Pressure Humidity
    00:00 +9°C° 0.1 mm 2 mps 655 mmHg 67%
    01:00 +10°C° 0.1 mm 1 mps 655 mmHg 67%
    02:00 +10°C° 0 mm 1 mps 655 mmHg 67%
    03:00 +9°C° 0 mm 2 mps 655 mmHg 67%
    04:00 +9°C° 0 mm 2 mps 655 mmHg 66%
    05:00 +9°C° 0 mm 2 mps 655 mmHg 66%
    06:00 +9°C° 0 mm 2 mps 655 mmHg 65%
    07:00 +9°C° 0 mm 2 mps 656 mmHg 64%
    08:00 +12°C° 0 mm 2 mps 656 mmHg 59%
    09:00 +12°C° 0 mm 3 mps 656 mmHg 54%
    10:00 +14°C° 0 mm 3 mps 657 mmHg 49%
    11:00 +14°C° 0.1 mm 3 mps 656 mmHg 47%
    12:00 +16°C° 0.1 mm 3 mps 656 mmHg 45%
    13:00 +17°C° 0.1 mm 3 mps 656 mmHg 43%
    14:00 +16°C° 0.5 mm 3 mps 656 mmHg 44%
    15:00 +16°C° 0.5 mm 3 mps 655 mmHg 45%
    16:00 +16°C° 0.5 mm 3 mps 655 mmHg 46%
    17:00 +15°C° 0.3 mm 2 mps 655 mmHg 49%
    18:00 +15°C° 0.3 mm 2 mps 656 mmHg 52%
    19:00 +14°C° 0.3 mm 1 mps 656 mmHg 56%
    20:00 +14°C° 0.2 mm 2 mps 656 mmHg 55%
    21:00 +13°C° 0.2 mm 2 mps 656 mmHg 54%
    22:00 +13°C° 0.2 mm 2 mps 655 mmHg 53%
    23:00 +13°C° 0 mm 2 mps 655 mmHg 54%

    28 February, Wednesday

    Time Temperature Precipitation Wind Pressure Humidity
    00:00 +12°C° 0 mm 2 mps 655 mmHg 54%
    01:00 +12°C° 0 mm 2 mps 655 mmHg 55%
    02:00 +10°C° 0 mm 2 mps 655 mmHg 55%
    03:00 +10°C° 0 mm 2 mps 654 mmHg 54%
    04:00 +10°C° 0 mm 3 mps 654 mmHg 54%
    05:00 +10°C° 0 mm 3 mps 654 mmHg 53%
    06:00 +10°C° 0 mm 3 mps 655 mmHg 51%
    07:00 +10°C° 0 mm 3 mps 655 mmHg 49%
    08:00 +12°C° 0 mm 3 mps 655 mmHg 44%
    09:00 +14°C° 0 mm 3 mps 655 mmHg 39%
    10:00 +17°C° 0 mm 3 mps 655 mmHg 34%
    11:00 +17°C° 0 mm 3 mps 655 mmHg 32%
    12:00 +18°C° 0 mm 3 mps 654 mmHg 31%
    13:00 +19°C° 0 mm 3 mps 654 mmHg 30%
    14:00 +19°C° 0 mm 3 mps 654 mmHg 31%
    15:00 +18°C° 0 mm 3 mps 653 mmHg 32%
    16:00 +18°C° 0 mm 3 mps 653 mmHg 32%
    17:00 +17°C° 0 mm 2 mps 653 mmHg 36%
    18:00 +16°C° 0 mm 2 mps 653 mmHg 40%
    19:00 +16°C° 0 mm 1 mps 653 mmHg 44%
    20:00 +15°C° 0 mm 1 mps 653 mmHg 44%
    21:00 +15°C° 0 mm 2 mps 653 mmHg 44%
    22:00 +15°C° 0 mm 2 mps 653 mmHg 44%
    23:00 +14°C° 0 mm 2 mps 652 mmHg 45%

    1 March, Thursday

    Time Temperature Precipitation Wind Pressure Humidity
    00:00 +14°C° 0 mm 2 mps 652 mmHg 46%
    01:00 +13°C° 0 mm 2 mps 651 mmHg 47%
    02:00 +13°C° 0 mm 2 mps 651 mmHg 48%
    03:00 +13°C° 0 mm 2 mps 651 mmHg 48%
    04:00 +13°C° 0 mm 2 mps 651 mmHg 49%
    05:00 +12°C° 0.3 mm 2 mps 651 mmHg 52%
    06:00 +12°C° 0.3 mm 2 mps 651 mmHg 55%
    07:00 +12°C° 0.3 mm 2 mps 652 mmHg 58%
    08:00 +13°C° 0.1 mm 2 mps 652 mmHg 57%
    09:00 +13°C° 0.1 mm 2 mps 652 mmHg 56%
    10:00 +14°C° 0.1 mm 2 mps 652 mmHg 55%
    11:00 +13°C° 0.1 mm 3 mps 652 mmHg 56%
    12:00 +13°C° 0.1 mm 3 mps 651 mmHg 57%
    13:00 +13°C° 0.1 mm 4 mps 651 mmHg 57%
    14:00 +13°C° 0.3 mm 4 mps 651 mmHg 63%
    15:00 +12°C° 0.3 mm 3 mps 651 mmHg 68%
    16:00 +11°C° 0.3 mm 3 mps 651 mmHg 74%
    17:00 +12°C° 0.5 mm 2 mps 651 mmHg 76%
    18:00 +10°C° 0.5 mm 2 mps 652 mmHg 79%
    19:00 +10°C° 0.5 mm 2 mps 652 mmHg 82%
    20:00 +10°C° 0.7 mm 2 mps 652 mmHg 84%
    21:00 +9°C° 0.7 mm 2 mps 652 mmHg 85%
    22:00 +10°C° 0.7 mm 1 mps 653 mmHg 87%
    23:00 +10°C° 1.3 mm 1 mps 653 mmHg 87%

    2 March, Friday

    Time Temperature Precipitation Wind Pressure Humidity
    00:00 +10°C° 1.3 mm 1 mps 652 mmHg 88%
    01:00 +9°C° 1.3 mm 1 mps 652 mmHg 89%
    02:00 +9°C° 1.1 mm 1 mps 652 mmHg 89%
    03:00 +9°C° 1.1 mm 1 mps 652 mmHg 89%
    04:00 +9°C° 1.1 mm 1 mps 652 mmHg 89%
    05:00 +9°C° 0.3 mm 1 mps 653 mmHg 89%
    06:00 +9°C° 0.3 mm 1 mps 653 mmHg 89%
    07:00 +9°C° 0.3 mm 1 mps 653 mmHg 89%
    08:00 +9°C° 0.5 mm 1 mps 653 mmHg 85%
    09:00 +10°C° 0.5 mm 1 mps 653 mmHg 80%
    10:00 +9°C° 0.5 mm 2 mps 654 mmHg 76%
    11:00 +10°C° 0.3 mm 2 mps 653 mmHg 73%
    12:00 +12°C° 0.3 mm 2 mps 653 mmHg 70%
    13:00 +12°C° 0.3 mm 2 mps 653 mmHg 67%
    14:00 +12°C° 0.1 mm 2 mps 653 mmHg 66%
    15:00 +13°C° 0.1 mm 2 mps 653 mmHg 66%
    16:00 +13°C° 0.1 mm 2 mps 652 mmHg 65%
    17:00 +12°C° 0.1 mm 2 mps 653 mmHg 69%
    18:00 +12°C° 0.1 mm 2 mps 653 mmHg 72%
    19:00 +10°C° 0.1 mm 2 mps 653 mmHg 75%
    20:00 +11°C° 0.2 mm 1 mps 653 mmHg 77%
    21:00 +10°C° 0.2 mm 1 mps 653 mmHg 79%
    22:00 +10°C° 0.2 mm 1 mps 653 mmHg 80%
    23:00 +10°C° 0.1 mm 1 mps 653 mmHg 82%
    Show more